Showing default

SHIYAN 30-03, 68139

Orbit data source: Space-Track

SHIYAN 30-03, 68139 is a payload satellite owned by SAST (CN) in LEO that was launched on Thu, 12 Mar 2026 UTC via a CHANG ZHENG 2D launch vehicle from the Xichang Space Center, China (XSC). Payload-class satellites include a variety of spacecraft equipped with specific instruments for various scientific and technological missions. These include communications satellites like Starlink; space stations such as the ISS; scientific satellites like the Hubble; Earth observation satellites from companies like Planet Labs, Umbra, and HawkEye 360; GPS; miniature CubeSats for education and research; and military/defense satellites.

Loading next visibility...
Identifier
68139, 2026-048A
Orbit
LEO
Country
Flag of CNCN / PRC
Related business
Manufacturer
SAST
Mission
Operational spacecraft
Bus & Motor
SY30, Unknown motor
Mass
500 kg wet, ~500 kg dry
Launch date (UTC)
2026-03-12 (2 months ago)
Launch vehicle
CHANG ZHENG 2D
Launch site
Xichang Space Center, China (XSC)
Object type
Payload
Rocket body
Debris
Shape & HBR
Unknown shape, 14.5 m
Radar Cross Section
RCS unknown

Expand to show TLE details & history
Last TLE update: 9 hours ago

TLE from 9 hours ago
0 SHIYAN 30-03
1 68139U 26048A   26119.90450286  .00002382  00000-0  23518-3 0  9997
2 68139  34.9993 197.1648 0005154 292.2179  67.7979 14.91661897  7159
Epoch: 2026-04-29T21:42Z
TLE epoch observation values (Epoch: 2026-04-29T21:42:29.047Z)
Latitude
Longitude
13.68501°
Altitude
590.32 km
Speed
7.568 km/s
True Right ascension
13h 08m 39s
True Declination
0° 00' 00"
Sunlit
Object was in full shadow at epoch
Visualization orbit readout
Latitude
Unknown
Longitude
Unknown
Altitude
Unknown
Speed
Unknown
Apparent Right ascension
Unknown
Apparent Declination
Unknown
Sunlit
N/A
Visualization observer readout
Local Sidereal Time
14:36:23
Azimuth
Unknown
Elevation
Unknown
Doppler factor
Unknown
Orbital elements
Apogee altitude
599.553 km
Perigee altitude
592.364 km
Semi-major axis
6,974.096 km
Eccentricity
0.00052
Inclination
34.9993°
RAAN
197.1648°
Arg. of periapsis
292.2179°
True anomaly
67.85259°
Mean anomaly
67.7979°
Eccentric anomaly
67.82525°
Mean motion
3.72659 °/min
Orbital period
96.6 mins
BSTAR
0.00023518
Loading maneuver chart data...
Computing Atmospheric mass density...
Loading historical data...
Loading historical data...
Loading historical data...
Loading historical data...
Loading historical data...
Loading historical data...
Loading historical data...
Other satellites on launch #48 in the year 2026 (2026-03-12 UTC)

Documentation

Showing up to 5 results
|